Weather History for Moses Lake, WA

Change the Weather History Date:

Tuesday, August 6, 2013

  Actual Average Record
Temperature  
Mean Temperature 78 °F 74 °F  
Max Temperature 96 °F 90 °F 102 °F (1997)
Min Temperature 59 °F 57 °F 48 °F (1985)
Degree Days  
Heating Degree Days 0 0  
Month to date heating degree days 0 0  
Since 1 June heating degree days 49 63  
Since 1 July heating degree days 0 8  
Cooling Degree Days 13 9  
Month to date cooling degree days 48 54  
Year to date cooling degree days 581 408  
Since 1 June cooling degree days 531 383  
Growing Degree Days 28 (Base 50)    
Moisture  
Dew Point 51 °F    
Average Humidity 47    
Maximum Humidity 78    
Minimum Humidity 16    
Precipitation  
Precipitation 0.00 in 0.01 in 0.06 in (2004)
Month to date precipitation 0.31 0.04  
Year to date precipitation 4.06 5.22  
Sea Level Pressure  
Sea Level Pressure 29.87 in    
Wind  
Wind Speed 4 mph (South)    
Max Wind Speed 13 mph    
Max Gust Speed 17 mph    
Visibility 10 miles    
Events      
T = Trace of Precipitation, MM = Missing Value Source: NWS Daily Summary

Daily Weather History Graph

Daily Weather History Graph

Search for Another Location

Airport:

Trip Planner

Search our weather history database for the weather conditions in past years. The results will help you decide how hot, cold, wet, or windy it might be!

Date:

Astronomy

Aug. 06, 2013 Rise Set
Actual Time 5:42 AM PDT 8:22 PM PDT
Civil Twilight 5:07 AM PDT 8:57 PM PDT
Nautical Twilight 4:23 AM PDT 9:41 PM PDT
Astronomical Twilight 3:32 AM PDT 10:32 PM PDT
Moon 5:43 AM PDT (8/6) 7:53 PM PDT (8/6)
Length of Visible Light 15h 49m
Length of Day
14h 39m
Waning Crescent, 0% of the Moon is Illuminated
Aug 6
Waning Crescent
Aug 6
New
Aug 14
First Quarter
Aug 20
Full
Aug 28
Last Quarter

Hourly Weather History & Observations

Time (PDT) Temp. Heat Index Dew Point Humidity Pressure Visibility Wind Dir Wind Speed Gust Speed Precip Events Conditions
12:52 AM 66.9 °F - 57.9 °F 73% 29.86 in 10.0 mi NNE 3.5 mph - N/A   Clear
1:52 AM 66.9 °F - 57.9 °F 73% 29.86 in 10.0 mi NNE 3.5 mph - N/A   Clear
2:52 AM 64.0 °F - 57.0 °F 78% 29.87 in 10.0 mi NNE 4.6 mph - N/A   Clear
3:52 AM 63.0 °F - 53.1 °F 70% 29.87 in 10.0 mi North 6.9 mph - N/A   Partly Cloudy
4:52 AM 62.1 °F - 51.1 °F 67% 29.88 in 10.0 mi Calm Calm - N/A   Clear
5:52 AM 60.1 °F - 52.0 °F 75% 29.89 in 10.0 mi North 4.6 mph - N/A   Partly Cloudy
6:52 AM 63.0 °F - 53.1 °F 70% 29.90 in 10.0 mi Calm Calm - N/A   Mostly Cloudy
7:52 AM 68.0 °F - 54.0 °F 61% 29.91 in 10.0 mi Calm Calm - N/A   Scattered Clouds
8:52 AM 72.0 °F - 55.0 °F 55% 29.92 in 10.0 mi Calm Calm - N/A   Partly Cloudy
9:52 AM 78.1 °F - 55.0 °F 45% 29.93 in 10.0 mi Calm Calm - N/A   Clear
10:52 AM 82.0 °F 81.7 °F 57.0 °F 42% 29.92 in 10.0 mi Variable 4.6 mph - N/A   Clear
11:52 AM 87.1 °F - 51.1 °F 29% 29.91 in 10.0 mi SW 6.9 mph - N/A   Clear
12:52 PM 90.0 °F 87.5 °F 53.1 °F 28% 29.90 in 10.0 mi SW 6.9 mph - N/A   Clear
1:52 PM 91.9 °F - 50.0 °F 24% 29.89 in 10.0 mi Variable 4.6 mph - N/A   Clear
2:52 PM 95.0 °F - 48.0 °F 20% 29.87 in 10.0 mi Variable 6.9 mph - N/A   Clear
3:52 PM 95.0 °F - 45.0 °F 18% 29.86 in 10.0 mi WSW 4.6 mph - N/A   Clear
4:52 PM 95.0 °F - 43.0 °F 17% 29.84 in 10.0 mi SSW 8.1 mph - N/A   Clear
5:52 PM 93.9 °F - 43.0 °F 17% 29.82 in 10.0 mi South 8.1 mph - N/A   Clear
6:52 PM 93.0 °F - 41.0 °F 16% 29.81 in 10.0 mi SSE 3.5 mph - N/A   Clear
7:52 PM 87.1 °F - 48.9 °F 27% 29.80 in 10.0 mi SE 6.9 mph - N/A   Clear
8:52 PM 81.0 °F - 52.0 °F 36% 29.80 in 10.0 mi SSE 3.5 mph - N/A   Clear
9:52 PM 82.0 °F - 51.1 °F 34% 29.81 in 10.0 mi South 5.8 mph - N/A   Clear
10:52 PM 75.9 °F - 53.1 °F 45% 29.82 in 10.0 mi Calm Calm - N/A   Clear
11:52 PM 70.0 °F - 53.1 °F 55% 29.82 in 10.0 mi Calm Calm - N/A   Clear